(394514) = 2007 PO17 = 2007 TA284 = 2011 SR53 = 2013 AW136

Discovered at Socorro on 2007-08-09 by LINEAR.

Orbit

Orbit type: Main Belt

Note: WebGL enabled browser required.

epoch2023-09-13.0
epoch JD2460200.5
perihelion date2022-08-13.25993
perihelion JD2459804.75993
argument of perihelion (°)32.80519
ascending node (°)287.65557
inclination (°)1.43017
eccentricity0.2160271
perihelion distance (AU)1.8904284
Tisserand w.r.t. Jupiter3.5
ΔV w.r.t. Earth (km/sec)8.6
semimajor axis (AU)2.4113441
mean anomaly (°)104.16578
mean daily motion (°/day)0.26321770
aphelion distance (AU)2.932
period (years)3.74
P-vector [x]0.77102792
P-vector [y]-0.58950090
P-vector [z]-0.24084153
Q-vector [x]0.63635707
Q-vector [y]0.69913434
Q-vector [z]0.32597678
absolute magnitude17.44
phase slope0.15
uncertainty0
referenceMPEC 2024-C06
observations used256
oppositions12
arc length (days)6019
first opposition used2007
last opposition used2024
residual rms (arc-secs)0.60
perturbers coarse indicatorM-v
perturbers precise indicator003Ek
first observation date used2007-08-09.0
last observation date used2024-01-31.0
computer nameMPCLINUX
JD of orbit computation2456847.646749
perihelion JD uncertainty (days)7.1173E-05
argument of perihelion uncertainty (°)2.3520E-04
ascending node uncertainty (°)2.3476E-04
inclination uncertainty (°)4.5764E-06
eccentricity uncertainty 4.6184E-08
perihelion distance uncertainty (AU)1.1865E-07
Minimum Orbit Intersection Distances (in AU)
for orbit epoch: 2460200.5, reference: E2023-XF2
Mercury1.47139
Venus1.16487
Earth0.87718
Mars0.50657
Jupiter2.37362
Saturn6.22984
Uranus15.5489
Neptune27.3482

Observations

260 total observations over interval: 2007 08 09.21308 – 2024 01 31.319124
These data are available for download (format description).

Date (UT) J2000 RA J2000 Dec Magn Location Ref
2007 08 09.21308 21 17 36.95 -14 12 45.0 19.0   704 – Lincoln Laboratory ETS, New Mexico MPS 213197
2007 08 09.22494 21 17 36.33 -14 12 46.9 19.1   704 – Lincoln Laboratory ETS, New Mexico MPS 213197
2007 08 09.23681 21 17 35.70 -14 12 49.1 19.2   704 – Lincoln Laboratory ETS, New Mexico MPS 213197
2007 08 09.24864 21 17 35.06 -14 12 50.7 19.2   704 – Lincoln Laboratory ETS, New Mexico MPS 213197
2007 08 09.26046 21 17 34.37 -14 12 53.0 19.5   704 – Lincoln Laboratory ETS, New Mexico MPS 213197
2007 08 11.28594 21 15 51.79 -14 18 14.5 18.2 R 699 – Lowell Observatory-LONEOS MPS 213197
2007 08 11.30422 21 15 50.81 -14 18 17.9   699 – Lowell Observatory-LONEOS MPS 213197
2007 08 11.32247 21 15 49.81 -14 18 20.8   699 – Lowell Observatory-LONEOS MPS 213197
2007 08 11.34072 21 15 48.85 -14 18 22.4   699 – Lowell Observatory-LONEOS MPS 213197
2007 09 27.22576 21 00 25.77 -15 04 34.7 19.3 V G96 – Mt. Lemmon Survey MPS 468673
2007 09 27.23381 21 00 25.99 -15 04 34.5 20.6 V G96 – Mt. Lemmon Survey MPS 468673
2007 09 27.24197 21 00 26.17 -15 04 33.5 20.0 V G96 – Mt. Lemmon Survey MPS 468673
2007 09 27.25034 21 00 26.38 -15 04 32.0 20.3 V G96 – Mt. Lemmon Survey MPS 468673
2007 10 09.15214 21 07 49.15 -14 34 59.1 20.1 V G96 – Mt. Lemmon Survey MPS 223759
2007 10 09.15889 21 07 49.47 -14 34 57.6 20.0 V G96 – Mt. Lemmon Survey MPS 223759
2007 10 09.16561 21 07 49.76 -14 34 56.9 20.0 V G96 – Mt. Lemmon Survey MPS 223759
2007 10 09.17245 21 07 50.08 -14 34 55.5 20.0 V G96 – Mt. Lemmon Survey MPS 223759
2007 10 13.11590 21 11 12.33 -14 21 03.9 20.3 V G96 – Mt. Lemmon Survey MPS 223759
2007 10 13.12196 21 11 12.66 -14 21 02.6 20.4 V G96 – Mt. Lemmon Survey MPS 223759
2007 10 13.12798 21 11 12.98 -14 21 00.8 20.4 V G96 – Mt. Lemmon Survey MPS 223759
2007 10 13.13409 21 11 13.30 -14 20 59.7 20.1 V G96 – Mt. Lemmon Survey MPS 223759
2007 10 13.18118 21 11 15.75 -14 20 49.0 20.3 V G96 – Mt. Lemmon Survey MPS 223759
2007 10 13.18831 21 11 16.11 -14 20 47.4 20.4 V G96 – Mt. Lemmon Survey MPS 223759
2007 10 13.19552 21 11 16.54 -14 20 45.2 20.3 V G96 – Mt. Lemmon Survey MPS 223759
2007 10 13.20272 21 11 16.83 -14 20 43.9 20.5 V G96 – Mt. Lemmon Survey MPS 223759
2007 11 09.12047 21 43 43.02 -11 54 30.4   291 – LPL/Spacewatch II MPS 468673
2007 11 09.12588 21 43 43.45 -11 54 28.1   291 – LPL/Spacewatch II MPS 468673
2007 11 09.13130 21 43 43.92 -11 54 25.7   291 – LPL/Spacewatch II MPS 468673
2008 12 21.37956 07 44 45.56 +21 20 33.1 21.5 V G96 – Mt. Lemmon Survey MPS 468673
2008 12 21.38694 07 44 45.13 +21 20 34.1 21.6 V G96 – Mt. Lemmon Survey MPS 468673
2008 12 21.39432 07 44 44.73 +21 20 35.1 21.7 V G96 – Mt. Lemmon Survey MPS 468673
2008 12 21.40171 07 44 44.30 +21 20 35.4 21.7 V G96 – Mt. Lemmon Survey MPS 468673
2008 12 29.29852 07 37 03.97 +21 35 38.7 21.3 V 691 – Steward Observatory, Kitt Peak-Spacewatch MPS 468673
2008 12 29.31663 07 37 02.84 +21 35 41.1 21.2 V 691 – Steward Observatory, Kitt Peak-Spacewatch MPS 468673
2008 12 29.33475 07 37 01.66 +21 35 43.3 21.5 V 691 – Steward Observatory, Kitt Peak-Spacewatch MPS 468673
2010 04 10.27515 12 28 41.84 -05 34 14.5 21.0 V G96 – Mt. Lemmon Survey MPS 468673
2010 04 10.28104 12 28 41.48 -05 34 12.6 20.7 V G96 – Mt. Lemmon Survey MPS 468673
2010 04 10.28697 12 28 41.16 -05 34 10.0 20.9 V G96 – Mt. Lemmon Survey MPS 468673
2010 04 10.29291 12 28 40.80 -05 34 07.8 21.1 V G96 – Mt. Lemmon Survey MPS 468673
2011 09 09.35393 01 26 51.66 +11 49 27.8   291 – LPL/Spacewatch II MPS 468673
2011 09 09.35780 01 26 51.56 +11 49 27.5   291 – LPL/Spacewatch II MPS 468673
2011 09 09.36169 01 26 51.47 +11 49 27.7   291 – LPL/Spacewatch II MPS 468673
2011 09 23.41698 01 18 50.03 +11 14 12.0 20.0 V 291 – LPL/Spacewatch II MPS 392869
2011 09 23.42237 01 18 49.77 +11 14 10.8 20.1 V 291 – LPL/Spacewatch II MPS 392869
2011 09 23.42775 01 18 49.51 +11 14 09.5 20.1 V 291 – LPL/Spacewatch II MPS 392869
2011 09 24.39840 01 18 04.86 +11 10 17.7 19.5 V G96 – Mt. Lemmon Survey MPS 392869
2011 09 24.40387 01 18 04.57 +11 10 16.4 19.6 V G96 – Mt. Lemmon Survey MPS 392869
2011 09 24.40924 01 18 04.32 +11 10 15.2 19.5 V G96 – Mt. Lemmon Survey MPS 392869
2011 09 24.41462 01 18 04.06 +11 10 13.9 19.4 V G96 – Mt. Lemmon Survey MPS 392869
2011 10 05.57293 01 08 24.44 +10 15 52.8 19.6 R D29 – Purple Mountain Observatory, XuYi Station MPS 468673
2011 10 05.58692 01 08 23.64 +10 15 48.3 19.0 R D29 – Purple Mountain Observatory, XuYi Station MPS 468673
2011 10 05.60090 01 08 22.86 +10 15 43.6 19.2 R D29 – Purple Mountain Observatory, XuYi Station MPS 468673
2011 10 05.61488 01 08 21.99 +10 15 40.0 18.9 R D29 – Purple Mountain Observatory, XuYi Station MPS 468673
2013 01 10.53040 09 06 24.969 +15 53 37.47 21.6 w F51 – Pan-STARRS 1, Haleakala MPS 457756
2013 01 10.54427 09 06 24.245 +15 53 39.89 21.7 w F51 – Pan-STARRS 1, Haleakala MPS 457756
2013 01 10.55813 09 06 23.537 +15 53 42.39 21.6 w F51 – Pan-STARRS 1, Haleakala MPS 457756
2013 01 10.57198 09 06 22.817 +15 53 45.22 21.7 w F51 – Pan-STARRS 1, Haleakala MPS 457756
2013 01 18.28996 08 59 26.89 +16 19 40.4 21.6 V 691 – Steward Observatory, Kitt Peak-Spacewatch MPS 457756
2013 01 18.30514 08 59 25.99 +16 19 43.7 21.3 V 691 – Steward Observatory, Kitt Peak-Spacewatch MPS 457756
2013 01 18.32035 08 59 25.05 +16 19 46.8 21.2 V 691 – Steward Observatory, Kitt Peak-Spacewatch MPS 457756
2014 04 05.47983 14 44 48.400 -18 15 27.96 20.8 w F51 – Pan-STARRS 1, Haleakala MPS 509796
2014 04 05.51551 14 44 46.997 -18 15 23.09 21.1 w F51 – Pan-STARRS 1, Haleakala MPS 509796
2014 04 23.24349 14 30 20.99 -17 14 07.1 20.9 V W84 – Cerro Tololo-DECam MPS 511120
2014 04 23.24372 14 30 20.99 -17 14 07.1 20.4 V W84 – Cerro Tololo-DECam MPS 790361
2014 04 23.24667 14 30 20.80 -17 14 06.2 20.9 V W84 – Cerro Tololo-DECam MPS 511120
2014 04 23.24691 14 30 20.80 -17 14 06.2   W84 – Cerro Tololo-DECam MPS 790361
2014 04 23.24987 14 30 20.61 -17 14 05.3 20.9 V W84 – Cerro Tololo-DECam MPS 511120
2014 04 23.25010 14 30 20.61 -17 14 05.3   W84 – Cerro Tololo-DECam MPS 790361
2014 04 23.25303 14 30 20.42 -17 14 04.4 20.9 V W84 – Cerro Tololo-DECam MPS 511120
2014 04 23.25326 14 30 20.42 -17 14 04.5   W84 – Cerro Tololo-DECam MPS 790361
2014 04 23.25618 14 30 20.23 -17 14 03.6 20.9 V W84 – Cerro Tololo-DECam MPS 511120
2014 04 23.25642 14 30 20.23 -17 14 03.6   W84 – Cerro Tololo-DECam MPS 790361
2014 04 25.28207 14 28 21.64 -17 04 42.7 20.4 V W84 – Cerro Tololo-DECam MPS 790361
2014 04 25.28525 14 28 21.44 -17 04 41.8   W84 – Cerro Tololo-DECam MPS 790361
2014 04 25.28842 14 28 21.25 -17 04 40.9   W84 – Cerro Tololo-DECam MPS 790361
2014 04 25.29165 14 28 21.05 -17 04 39.9   W84 – Cerro Tololo-DECam MPS 790361
2014 04 25.29493 14 28 20.85 -17 04 39.0   W84 – Cerro Tololo-DECam MPS 790361
2014 04 26.23203 14 27 25.41 -17 00 12.1 20.3 V W84 – Cerro Tololo-DECam MPS 790361
2014 04 26.23520 14 27 25.21 -17 00 11.1   W84 – Cerro Tololo-DECam MPS 790361
2014 04 26.23837 14 27 25.02 -17 00 10.2   W84 – Cerro Tololo-DECam MPS 790361
2014 04 26.24152 14 27 24.82 -17 00 09.3   W84 – Cerro Tololo-DECam MPS 790361
2014 04 26.24469 14 27 24.62 -17 00 08.4   W84 – Cerro Tololo-DECam MPS 790361
2014 05 27.33428 13 59 35.774 -14 24 00.76 20.6 w F51 – Pan-STARRS 1, Haleakala MPS 517881
2014 05 27.34537 13 59 35.340 -14 23 58.07 20.7 w F51 – Pan-STARRS 1, Haleakala MPS 517881
2014 05 27.36756 13 59 34.456 -14 23 52.47 20.6 w F51 – Pan-STARRS 1, Haleakala MPS 517881
2014 05 29.36225 13 58 23.831 -14 15 49.46 21.0 w F51 – Pan-STARRS 1, Haleakala MPS 517881
2014 05 29.37303 13 58 23.442 -14 15 46.72 20.6 w F51 – Pan-STARRS 1, Haleakala MPS 517881
2014 05 29.38375 13 58 23.059 -14 15 44.38 20.6 w F51 – Pan-STARRS 1, Haleakala MPS 517881
2014 05 29.39447 13 58 22.662 -14 15 41.72 20.6 w F51 – Pan-STARRS 1, Haleakala MPS 517881
2014 06 27.28009 13 54 44.100 -13 27 01.23 21.3 w F51 – Pan-STARRS 1, Haleakala MPS 521294
2014 06 27.29245 13 54 44.308 -13 27 01.64 21.4 w F51 – Pan-STARRS 1, Haleakala MPS 521294
2014 06 27.30483 13 54 44.510 -13 27 02.14 21.1 w F51 – Pan-STARRS 1, Haleakala MPS 521294
2015 10 26.41365 04 13 56.628 +23 10 05.79 20.2 i F51 – Pan-STARRS 1, Haleakala MPS 642100
